Danvers, MA

4:15 AM EDT on August 28, 2016 (GMT -0400)
Beverly Municipal

Weather History for KBVY - August, 2013

Change the Weather History Date:

Tuesday, August 20, 2013

  Actual Average Record
Temperature  
Mean Temperature 74 °F -  
Max Temperature 86 °F 77 °F 93 °F (1983)
Min Temperature 64 °F 57 °F 50 °F (2008)
Cooling Degree Days 9    
Growing Degree Days 24 (Base 50)    
Moisture  
Dew Point 61 °F    
Average Humidity 68    
Maximum Humidity 90    
Minimum Humidity 43    
Precipitation  
Precipitation 0.00 in - - ()
Sea Level Pressure  
Sea Level Pressure 30.02 in    
Wind  
Wind Speed 5 mph (WNW)    
Max Wind Speed 8 mph    
Max Gust Speed -    
Visibility 10 miles    
Events      
Averages and records for this station are not official NWS values.
T = Trace of Precipitation, MM = Missing Value Source: NWS Daily Summary

Daily Weather History Graph

Daily Weather History Graph

Search for Another Location

Airport or City:

Trip Planner

Search our weather history database for the weather conditions in past years. The results will help you decide how hot, cold, wet, or windy it might be!

Date:

Astronomy

Aug. 20, 2013 Rise Set
Actual Time 5:55 AM EDT 7:37 PM EDT
Civil Twilight 5:26 AM EDT 8:07 PM EDT
Nautical Twilight 4:49 AM EDT 8:43 PM EDT
Astronomical Twilight 4:10 AM EDT 9:22 PM EDT
Moon 7:05 PM EDT (8/20) 5:22 AM EDT (8/20)
Length of Visible Light 14h 41m
Length of Day
13h 41m
Full, 100% of the Moon is Illuminated
Aug 20
Full
Aug 20
Full
Aug 28
Last Quarter
Sep 5
New
Sep 12
First Quarter

Hourly Weather History & Observations

Time (EDT) Temp. Heat Index Dew Point Humidity Pressure Visibility Wind Dir Wind Speed Gust Speed Precip Events Conditions
12:53 AM 70.0 °F - 60.1 °F 71% 29.96 in 10.0 mi West 5.8 mph - N/A   Clear
1:53 AM 70.0 °F - 60.1 °F 71% 29.96 in 10.0 mi WNW 6.9 mph - N/A   Clear
2:53 AM 68.0 °F - 60.1 °F 76% 29.97 in 10.0 mi West 5.8 mph - N/A   Clear
3:53 AM 66.0 °F - 59.0 °F 78% 29.97 in 10.0 mi NW 3.5 mph - N/A   Clear
4:53 AM 64.9 °F - 59.0 °F 81% 29.99 in 10.0 mi WNW 3.5 mph - N/A   Clear
5:53 AM 64.9 °F - 59.0 °F 81% 30.01 in 10.0 mi WNW 5.8 mph - N/A   Clear
6:53 AM 64.9 °F - 59.0 °F 81% 30.01 in 10.0 mi NW 3.5 mph - N/A   Clear
7:53 AM 69.1 °F - 60.1 °F 73% 30.03 in 10.0 mi NW 4.6 mph - N/A   Clear
8:53 AM 73.9 °F - 62.1 °F 66% 30.03 in 10.0 mi NNW 5.8 mph - N/A   Clear
9:53 AM 77.0 °F - 63.0 °F 62% 30.04 in 10.0 mi NNW 6.9 mph - N/A   Clear
10:53 AM 80.1 °F 81.5 °F 63.0 °F 56% 30.04 in 10.0 mi West 3.5 mph - N/A   Clear
11:53 AM 82.0 °F 83.0 °F 62.1 °F 51% 30.04 in 10.0 mi Variable 6.9 mph - N/A   Clear
12:53 PM 82.9 °F 83.7 °F 62.1 °F 49% 30.04 in 10.0 mi NW 6.9 mph - N/A   Clear
1:53 PM 84.9 °F 84.8 °F 60.1 °F 43% 30.03 in 10.0 mi Variable 6.9 mph - N/A   Clear
2:53 PM 82.9 °F 83.7 °F 62.1 °F 49% 30.02 in 10.0 mi Variable 3.5 mph - N/A   Partly Cloudy
3:53 PM 81.0 °F 82.2 °F 63.0 °F 54% 30.02 in 10.0 mi SSE 5.8 mph - N/A   Clear
4:53 PM 79.0 °F - 62.1 °F 56% 30.03 in 10.0 mi SE 8.1 mph - N/A   Partly Cloudy
5:53 PM 78.1 °F - 63.0 °F 60% 30.03 in 10.0 mi ESE 5.8 mph - N/A   Clear
6:53 PM 75.0 °F - 63.0 °F 66% 30.04 in 10.0 mi SSE 5.8 mph - N/A   Partly Cloudy
7:53 PM 71.1 °F - 62.1 °F 73% 30.05 in 10.0 mi Calm Calm - N/A   Partly Cloudy
8:53 PM 69.1 °F - 62.1 °F 78% 30.06 in 10.0 mi Calm Calm - N/A   Clear
9:53 PM 66.9 °F - 62.1 °F 84% 30.06 in 10.0 mi Calm Calm - N/A   Clear
10:53 PM 64.9 °F - 62.1 °F 90% 30.06 in 10.0 mi Calm Calm - N/A   Clear
11:53 PM 64.9 °F - 62.1 °F 90% 30.06 in 9.0 mi Calm Calm - N/A   Clear